Location: Hyderabad
(17.3833°N, 78.4667°E)
Time: 23:52:37
(UTC+05:30)

Daily predictions for brighter satellites

Satellite Brightness Start Highest point End
(mag) Time Altitude Azimuth Time Altitude Azimuth Time Altitude Azimuth
Iridium 2 3.6 18:36:10 10° N 18:39:58 78° E 18:43:46 10° S
OAO 2 Rocket 4.2 18:36:11 10° W 18:40:53 43° NNW 18:45:34 10° NE
MOS 1-B Rocket 4.3 18:35:09 10° SSE 18:42:27 62° ENE 18:48:40 10° N
Aureole 1 Rocket 4.3 18:38:00 10° S 18:44:24 80° ESE 18:52:27 10° NNE
MONITOR-E 4.0 18:42:20 10° SSE 18:45:20 69° ENE 18:48:20 10° N
Cosmos 2360 Rocket 4.0 18:43:14 10° NW 18:48:21 37° WSW 18:53:26 10° S
Cosmos 2082 4.0 18:45:08 10° SSW 18:50:43 74° WNW 18:56:19 10° NNE
GPS 2-12 Rocket1 3.2 18:47:30 10° WSW 18:52:19 82° SSE 18:56:42 12° E
Cosmos 2333 Rocket 2.6 18:49:08 10° N 18:54:22 39° ENE 18:59:34 10° SE
Cosmos 2233 Rocket 4.0 18:53:25 10° N 18:59:37 66° E 19:05:45 10° SSE
COSMOS 2428 2.8 18:54:50 10° NNW 19:00:34 86° WSW 19:06:15 10° SSE
Geosat 4.0 18:56:16 10° NNE 19:01:14 66° ESE 19:06:12 10° SSW
Sakura Rocket 4.4 18:55:49 10° W 19:01:24 62° NNW 19:08:31 13° ENE
H-2A R/B 3.0 18:59:45 10° SSE 19:03:31 48° ENE 19:07:17 10° N
Cosmos 1908 Rocket 4.0 19:00:08 10° SSE 19:04:19 41° E 19:08:31 10° NNE
YAOGAN 1 4.4 19:00:52 10° SSW 19:04:48 35° W 19:08:46 10° NNW
IUS-26 SRM-1 3.3 19:03:39 10° W 19:05:58 50° SSW 19:11:23 10° ESE
Cosmos 158 Rocket 3.8 19:02:04 10° S 19:07:01 73° ESE 19:11:54 10° NNE
OE (NEXTSAT) 4.4 19:03:37 10° SW 19:07:07 64° SE 19:09:34 18° NE
MOS 1 4.5 19:02:44 10° S 19:08:22 78° WSW 19:14:01 10° NNW
FengYun 1-2 T 4.4 19:03:27 10° SSE 19:08:45 47° ENE 19:14:00 10° N
Cosmos 1624 Rocket 4.2 19:05:22 10° N 19:10:21 47° ENE 19:15:19 10° SSE
GPS 2-04 Rocket1 4.2 19:08:53 10° NNW 19:11:27 18° NNE 19:12:17 16° NE
Cosmos 1674 Rocket 4.1 19:08:05 10° NNE 19:11:59 33° E 19:15:51 10° SSE
Cosmos 1733 Rocket 4.3 19:10:20 10° SSW 19:14:27 43° W 19:18:33 10° NNW
Iridium 4 Rocket 3.7 19:15:23 10° NNE 19:19:36 33° E 19:23:31 10° SSE
ATLAS 2A CENTAUR R/B 2.5 19:09:24 10° WNW 19:21:28 78° NNE 19:24:23 25° ESE
GPS 2-05 Rocket1 3.2 19:20:38 10° SW 19:23:33 37° SE 19:23:54 36° SE
Cosmos 1980 3.9 19:18:10 10° N 19:23:35 45° ENE 19:28:57 10° SE
USA 32 4.1 19:19:49 10° SSE 19:24:53 53° E 19:29:57 10° NNE
Thor Agena Rocket 3.5 19:23:05 10° N 19:28:08 82° WNW 19:33:10 10° SSW
Cosmos 1269 Rocket 4.0 19:26:11 10° S 19:31:22 59° ESE 19:36:04 13° NNE
GPS 2-14 Rocket1 3.0 19:28:29 10° W 19:32:38 59° N 19:33:51 40° NE
Envisat 3.5 19:28:21 10° SE 19:32:52 34° ENE 19:37:23 10° NNE
Cosmos 1437 Rocket 2.8 19:31:46 10° S 19:35:36 53° E 19:36:24 44° NE
Cosmos 1812 2.5 19:33:14 10° N 19:37:05 72° E 19:40:56 10° S
ERS-2 2.5 19:37:31 10° S 19:41:10 64° WSW 19:44:49 10° NNW
Lacrosse 5 3.5 19:39:09 10° N 19:41:05 18° NNE 19:41:05 18° NNE
Cosmos 2034 Rocket 4.3 19:39:28 10° NNE 19:45:28 43° E 19:51:25 10° SSE
Sich 1 Rocket 3.9 19:42:25 10° S 19:46:57 70° W 19:51:27 10° N
CENTAUR R/B 3.7 19:41:58 10° SW 19:47:07 36° WNW 19:52:45 10° N
Okean 3 3.2 19:44:28 10° N 19:48:38 86° E 19:52:48 10° S
Cosmos 1891 Rocket 4.4 19:44:22 10° N 19:50:26 60° E 19:56:23 10° SSE
SeaSat 1 3.2 19:51:51 35° NNE 19:51:51 35° NNE 19:55:07 10° N
Cosmos 1816 Rocket 4.4 19:45:02 10° S 19:51:15 62° E 19:57:31 10° NNE
CRYOSAT 2 4.3 19:48:09 10° N 19:53:01 88° W 19:57:51 10° S
COSMOS 2455 3.5 19:48:22 10° S 19:52:40 34° SE 19:52:40 34° SE
Cosmos 2219 Rocket 3.8 19:53:12 10° NW 19:58:15 35° WSW 20:03:16 10° SSW
DELTA 2 R/B (1) 3.8 19:54:02 10° NW 19:59:16 51° NNE 19:59:16 51° NNE
Cosmos 2346 Rocket 4.4 19:55:12 10° S 20:01:22 63° E 20:03:09 45° NE
Cosmos 1782 Rocket 4.0 19:57:06 10° SSW 20:01:30 62° W 20:04:26 20° N
SJ-6B 4.2 20:05:54 30° NW 20:05:54 30° NW 20:07:59 10° NNW
Cosmos 2237 Rocket 2.4 20:03:17 10° NNW 20:08:50 66° WSW 20:14:24 10° S
GOES 2 Rocket 4.0 20:01:23 10° WNW 20:09:18 79° SSW 20:10:32 60° SE
SL-16 R/B 4.2 20:05:00 10° N 20:05:47 14° N 20:05:47 14° N
GPS 2-18 Rocket1 4.5 20:07:02 10° W 20:09:57 38° WSW 20:09:57 38° WSW
Meteor 1-18 Rocket 4.1 20:07:29 10° N 20:13:02 80° W 20:18:33 10° S
Tsikada Rocket 4.5 20:14:43 10° SSW 20:20:58 60° W 20:27:17 10° N
CZ-3A R/B 4.5 20:23:05 10° WSW 20:23:34 12° WSW 20:23:34 12° WSW
H-2A R/B 2.9 20:24:37 10° WSW 20:31:50 44° WSW 20:31:50 44° WSW
Haruka 4.2 20:28:54 10° WSW 20:49:13 82° W 20:49:13 82° W
ATLAS 2A CENTAUR R/B 3.9 20:29:52 10° WSW 20:53:17 70° SSW 20:53:17 70° SSW
